Wind_Speed
5 5 5 5 6 7 8 10 12 14 15 17 19 20 21 22 23 24 26 27 29 29 30 30 30 30 30 30 31 31 31 30 31 32 35 37 38 38 39 40 41 42 43
7 7 7 7 8 9 11 13 14 16 17 19 20 22 23 24 25 27 28 30 31 31 31 32 32 32 32 32 32 32 32 32 32 32 34 36 37 39 40 40 41 42 43
9 9 9 10 11 12 13 15 17 18 19 21 22 24 25 27 28 29 30 31 32 33 33 33 33 33 33 33 33 32 32 32 33 33 33 35 37 38 39 40 42 43 44
12 12 12 13 14 15 16 17 19 20 22 23 24 26 27 29 30 31 32 33 34 34 35 35 34 34 34 34 34 33 33 33 33 33 33 34 36 37 38 39 41 42 44
14 14 14 15 16 17 18 19 21 23 24 25 27 28 29 30 31 32 33 34 35 36 36 36 36 35 35 35 35 34 34 34 33 33 33 33 35 36 37 39 40 41 42
16 16 17 18 19 20 21 22 23 25 26 28 29 30 31 32 33 34 34 35 36 37 37 37 37 36 36 36 36 35 34 34 33 33 33 33 34 35 35 37 39 40 42
19 20 20 21 22 22 23 25 26 27 29 30 31 32 33 33 34 35 36 37 37 38 38 38 38 37 37 36 36 35 35 34 34 34 33 33 34 35 35 36 37 38 40
21 22 23 24 25 25 26 28 29 30 31 31 32 34 34 35 35 36 38 38 38 39 39 39 38 38 37 36 35 35 35 35 35 34 34 34 34 35 36 36 37 37 38
23 24 25 26 27 28 29 30 31 32 33 33 35 36 36 36 37 38 39 39 39 40 41 40 39 38 37 37 36 35 35 35 35 35 35 35 35 36 36 36 37 37 38
25 25 27 28 29 30 31 32 33 34 35 36 37 37 38 38 39 39 40 40 41 41 41 41 40 38 38 37 36 36 35 35 35 35 34 34 34 35 36 36 36 37 37
27 28 29 30 31 32 33 34 35 36 37 37 38 39 39 40 40 41 41 41 42 42 42 41 40 40 39 38 38 37 36 35 35 34 34 34 34 34 35 35 35 36 37
29 30 31 32 33 34 35 36 37 38 38 39 40 40 41 42 42 43 43 43 43 43 42 42 41 41 40 39 38 37 36 36 34 34 34 34 34 34 34 34 35 35 35
30 31 33 34 35 36 38 38 39 40 40 41 42 42 43 44 44 44 44 44 44 44 43 43 42 42 41 40 39 38 37 36 35 34 34 34 35 34 34 34 34 34 34
33 34 35 36 37 39 40 41 42 42 43 44 43 44 45 45 46 46 46 46 46 45 44 44 43 42 41 40 39 38 37 36 36 35 35 35 35 34 34 34 33 33 33
35 36 38 39 40 41 42 43 44 44 45 45 45 46 47 47 47 48 48 47 47 46 46 45 44 43 41 40 39 38 37 37 36 35 35 35 34 34 34 33 33 32 31
37 39 40 41 43 44 45 45 45 46 46 47 48 49 49 49 49 49 49 49 48 48 47 46 44 43 42 40 39 38 38 37 36 35 35 34 34 34 33 32 32 31 31
40 41 42 44 45 46 47 47 47 47 48 49 50 51 52 51 51 51 51 50 49 49 48 46 45 43 42 41 40 39 37 36 36 35 34 34 33 32 32 31 31 30 30
42 44 45 45 46 47 48 49 50 50 50 51 52 53 54 54 54 53 52 51 50 50 48 47 44 43 42 40 39 38 37 36 35 34 33 33 32 31 30 29 29 29 28
44 45 47 48 49 50 51 52 53 53 54 54 54 54 55 55 55 54 53 52 51 50 48 46 44 42 41 39 38 37 35 34 34 33 32 32 31 30 28 28 27 27 27
47 48 49 50 51 53 54 55 55 56 56 56 56 56 56 55 54 53 53 52 51 49 47 44 42 40 39 37 36 36 35 34 33 32 31 30 30 29 27 27 27 26 26
49 50 51 53 54 55 56 57 57 58 58 57 57 57 57 56 54 53 51 49 48 46 43 41 39 38 37 36 35 34 33 32 31 30 29 29 27 26 26 26 25 24 24
51 52 53 54 55 57 57 58 58 58 58 58 57 56 56 55 52 50 48 46 45 43 41 39 37 36 35 34 33 33 32 30 29 28 27 26 25 24 24 24 24 23 23
52 53 55 56 57 58 58 58 58 58 57 56 55 54 53 51 48 46 44 42 41 39 37 36 34 33 33 31 31 31 30 28 26 25 25 24 23 22 22 22 21 21 22
54 55 56 57 57 57 57 57 56 56 55 54 53 51 49 47 44 43 41 39 37 35 34 33 31 31 30 29 28 27 26 25 24 24 23 22 21 21 21 21 20 20 20
54 55 55 55 55 55 55 54 53 52 51 50 48 47 44 42 41 39 37 35 32 31 30 29 29 28 28 27 26 25 24 23 23 22 22 21 20 20 19 19 19 18 18
54 54 54 54 53 52 51 50 49 48 47 45 43 41 39 37 36 34 32 30 28 27 27 26 25 25 25 25 24 23 22 21 21 20 20 19 19 18 17 18 17 17 16
Wind_Direction
232 243 254 268 283 292 299 306 309 313 317 318 320 321 322 323 323 323 324 324 324 322 321 319 317 314 309 305 301 296 291 286 281 276 272 269 266 263 259 255 253 250 248
244 253 263 274 283 291 298 303 306 310 313 316 318 319 320 321 321 322 322 322 322 322 321 319 317 314 311 307 303 299 294 289 284 280 275 272 269 265 262 258 254 251 249
254 262 271 279 285 291 296 299 303 307 310 313 315 316 318 318 319 320 321 321 322 321 320 319 317 315 312 309 306 301 297 292 288 282 278 275 272 268 265 260 256 253 250
259 266 273 280 286 290 293 297 300 304 308 310 312 314 315 316 317 318 319 320 320 320 319 318 317 315 312 310 307 303 299 295 290 285 281 277 274 271 267 263 259 256 252
263 268 274 280 286 290 293 296 300 304 306 308 310 311 313 314 314 316 317 318 319 319 319 318 317 315 313 310 307 304 300 296 291 287 283 280 277 273 269 265 262 259 255
267 271 277 281 286 290 293 296 298 301 304 306 308 309 310 311 312 313 315 316 317 318 318 317 316 314 313 310 307 304 300 296 292 289 286 283 279 276 272 268 264 261 258
272 275 280 283 286 290 293 295 297 299 302 305 307 308 309 310 311 312 313 315 316 317 317 317 315 314 312 310 307 303 300 296 292 289 287 284 281 277 274 271 267 263 260
275 278 281 284 287 290 293 295 297 299 301 304 305 307 308 309 310 311 312 313 314 314 316 316 314 313 312 310 307 304 300 297 293 289 287 285 282 279 276 273 269 265 261
277 280 282 285 288 290 292 294 296 298 300 302 303 305 307 308 309 310 311 312 313 313 314 314 313 311 311 309 307 304 300 297 294 291 287 285 283 280 277 274 270 266 262
279 281 283 286 289 291 293 294 296 297 299 301 302 304 305 306 307 308 310 310 311 312 312 313 312 311 309 308 306 303 301 298 296 293 289 286 284 282 278 275 271 267 262
281 283 284 287 289 291 293 294 296 297 298 300 301 302 304 306 306 307 308 309 310 310 311 311 311 310 308 307 305 303 300 298 296 293 290 288 286 283 279 276 272 268 264
282 284 285 287 289 291 293 294 296 297 299 299 300 301 303 305 305 306 307 308 309 309 309 309 309 308 307 306 304 303 300 298 295 293 291 288 286 284 281 278 275 271 266
283 284 286 287 289 290 292 294 296 297 298 298 299 301 303 304 304 305 306 307 308 308 308 307 307 307 306 304 303 301 299 297 295 293 290 288 286 284 282 279 276 272 267
282 284 286 287 289 290 292 293 295 296 297 298 298 300 301 302 303 304 305 306 306 307 306 306 305 305 304 303 301 300 298 296 295 293 291 288 286 284 282 279 276 272 268
283 284 285 287 288 289 290 292 293 295 296 297 298 299 300 301 302 302 303 304 304 305 305 305 304 303 302 302 301 299 297 296 294 293 291 289 286 284 282 280 276 271 268
283 285 285 286 288 290 291 292 293 294 296 297 297 298 299 300 300 301 301 302 302 303 303 303 302 300 300 300 299 298 296 296 295 293 292 289 286 284 282 278 276 272 267
285 286 287 287 289 291 291 291 292 293 295 296 296 297 298 298 298 299 299 300 300 301 301 301 299 297 297 297 296 296 295 295 294 293 291 290 287 284 282 279 276 272 267
286 287 288 288 289 290 291 291 292 293 294 294 295 296 296 296 297 297 298 298 298 299 299 298 297 295 295 295 295 294 293 293 293 293 291 289 287 284 281 280 278 273 268
287 287 288 289 289 290 290 291 292 293 293 293 293 293 294 295 295 296 296 296 297 297 296 296 294 293 293 293 293 292 292 292 293 292 291 289 287 283 280 279 277 272 268
287 287 288 288 289 289 290 290 291 292 292 293 293 293 293 293 294 294 294 294 294 294 294 293 292 291 291 291 291 290 290 291 292 291 291 290 287 282 278 278 276 272 268
287 288 288 289 289 290 290 291 291 292 292 292 292 292 292 292 293 293 293 293 292 292 291 290 290 289 289 290 289 289 289 290 290 291 291 290 287 281 277 276 274 272 267
288 288 289 289 290 290 291 291 291 292 292 292 292 292 292 292 293 292 291 291 290 290 289 287 287 287 287 289 289 288 288 288 289 290 290 290 286 281 278 275 273 272 268
289 290 290 291 291 291 292 292 292 292 292 293 293 293 292 292 292 291 290 289 289 288 287 286 285 285 286 287 288 287 287 286 286 287 289 288 284 280 277 275 273 271 267
291 291 291 292 292 292 292 293 293 293 293 293 293 293 292 291 290 289 289 288 287 286 284 283 282 283 285 286 286 285 286 287 286 286 287 287 284 280 276 273 270 268 264
292 292 292 292 292 293 293 293 293 293 293 292 292 293 292 290 289 288 288 287 285 284 283 282 282 283 285 285 283 284 285 285 285 284 285 285 284 280 273 269 267 265 262
294 293 293 293 293 293 293 293 293 293 292 292 292 292 291 289 286 286 286 284 283 282 282 282 283 283 284 283 282 282 283 282 282 282 283 284 283 277 270 267 264 261 258
Height
5852 5852 5853 5853 5852 5852 5851 5850 5849 5848 5846 5844 5842 5839 5836 5834 5831 5827 5824 5820 5817 5813 5809 5805 5801 5797 5794 5790 5788 5785 5783 5782 5781 5779 5778 5777 5777 5778 5780 5781 5784 5786 5788
5850 5850 5850 5849 5849 5848 5847 5846 5845 5844 5842 5839 5837 5834 5831 5828 5825 5822 5818 5814 5810 5806 5802 5798 5794 5790 5786 5782 5779 5776 5773 5772 5771 5769 5768 5767 5766 5767 5768 5769 5771 5774 5776
5847 5846 5846 5846 5845 5844 5843 5842 5840 5839 5837 5834 5832 5829 5826 5823 5819 5816 5812 5808 5803 5799 5795 5790 5786 5782 5777 5774 5770 5767 5764 5762 5760 5759 5757 5756 5755 5755 5756 5757 5759 5761 5764
5843 5842 5842 5841 5840 5839 5838 5837 5835 5833 5831 5829 5826 5823 5820 5817 5813 5809 5805 5801 5796 5792 5787 5782 5778 5773 5769 5765 5761 5757 5754 5752 5750 5748 5747 5745 5744 5744 5744 5745 5746 5748 5751
5838 5838 5837 5836 5835 5834 5833 5831 5830 5827 5825 5822 5820 5817 5814 5810 5806 5802 5798 5794 5789 5784 5779 5774 5770 5765 5760 5756 5752 5748 5745 5742 5739 5738 5736 5735 5733 5732 5732 5733 5734 5736 5738
5833 5833 5832 5831 5830 5829 5827 5825 5823 5821 5819 5816 5813 5810 5807 5803 5799 5795 5791 5786 5781 5776 5771 5766 5761 5756 5752 5747 5743 5739 5736 5732 5730 5728 5726 5724 5723 5721 5721 5721 5722 5724 5726
5828 5827 5826 5825 5823 5822 5820 5819 5816 5814 5811 5809 5806 5802 5799 5795 5791 5787 5783 5778 5773 5768 5763 5757 5752 5747 5742 5738 5733 5730 5726 5723 5720 5718 5716 5714 5712 5711 5710 5710 5710 5711 5713
5822 5821 5819 5818 5817 5815 5813 5811 5809 5806 5804 5801 5797 5794 5790 5787 5783 5778 5774 5769 5764 5759 5754 5749 5743 5738 5733 5729 5724 5720 5716 5713 5710 5708 5706 5704 5701 5700 5699 5699 5698 5699 5700
5815 5814 5812 5811 5809 5807 5805 5803 5801 5798 5795 5792 5789 5785 5781 5778 5774 5769 5765 5760 5755 5750 5745 5739 5734 5729 5724 5719 5715 5711 5707 5703 5700 5697 5695 5693 5690 5689 5687 5687 5687 5687 5688
5807 5806 5804 5803 5801 5799 5797 5794 5792 5789 5786 5783 5780 5776 5772 5768 5764 5760 5755 5750 5745 5740 5735 5729 5724 5719 5714 5709 5705 5701 5697 5693 5690 5687 5684 5682 5679 5677 5676 5675 5675 5675 5676
5799 5798 5796 5794 5792 5790 5788 5786 5783 5780 5777 5774 5770 5766 5762 5759 5754 5750 5745 5740 5735 5730 5724 5719 5714 5709 5704 5699 5695 5691 5687 5683 5680 5676 5673 5671 5668 5666 5665 5663 5663 5663 5663
5791 5789 5787 5786 5784 5781 5779 5776 5773 5770 5767 5763 5760 5756 5752 5748 5744 5739 5734 5729 5724 5719 5714 5709 5703 5698 5694 5689 5684 5680 5676 5673 5669 5666 5663 5660 5658 5655 5654 5652 5651 5651 5651
5782 5780 5778 5776 5774 5772 5769 5766 5763 5760 5756 5753 5749 5746 5742 5737 5732 5727 5722 5718 5712 5708 5703 5698 5693 5688 5683 5678 5674 5669 5666 5662 5659 5656 5653 5650 5647 5645 5643 5641 5640 5639 5640
5773 5771 5769 5767 5764 5762 5759 5756 5752 5749 5745 5742 5738 5734 5730 5726 5721 5715 5711 5706 5701 5696 5691 5686 5681 5676 5672 5667 5663 5658 5655 5651 5648 5645 5642 5639 5636 5634 5632 5630 5629 5628 5629
5764 5761 5759 5757 5754 5751 5748 5744 5741 5737 5733 5730 5726 5722 5718 5714 5709 5703 5698 5694 5689 5684 5679 5675 5670 5665 5660 5656 5652 5647 5644 5640 5637 5634 5631 5628 5625 5623 5621 5619 5618 5617 5617
5754 5751 5748 5745 5742 5739 5736 5733 5729 5726 5721 5717 5713 5709 5705 5701 5696 5691 5686 5681 5676 5671 5667 5662 5658 5653 5648 5644 5640 5636 5633 5629 5626 5623 5620 5617 5614 5612 5610 5608 5607 5607 5607
5742 5740 5737 5734 5731 5727 5724 5720 5717 5713 5708 5704 5699 5695 5691 5687 5682 5677 5672 5668 5663 5658 5654 5649 5645 5641 5637 5633 5629 5625 5622 5618 5615 5612 5609 5606 5604 5602 5600 5598 5597 5596 5596
5731 5728 5725 5721 5718 5714 5710 5707 5703 5699 5695 5691 5686 5681 5676 5671 5667 5662 5658 5654 5649 5644 5640 5636 5632 5628 5625 5621 5617 5614 5611 5607 5604 5601 5598 5596 5593 5591 5590 5588 5587 5586 5586
5718 5715 5712 5708 5704 5701 5697 5692 5688 5684 5680 5676 5671 5666 5661 5656 5652 5647 5642 5638 5634 5630 5626 5622 5619 5615 5612 5609 5606 5603 5600 5597 5594 5591 5588 5586 5583 5581 5580 5579 5577 5577 5576
5705 5701 5698 5694 5690 5686 5681 5677 5673 5668 5664 5659 5655 5651 5645 5641 5636 5632 5627 5623 5619 5616 5612 5609 5606 5602 5600 5597 5594 5592 5589 5587 5584 5581 5578 5576 5573 5572 5570 5569 5568 5568 5568
5691 5687 5683 5679 5674 5670 5665 5661 5656 5651 5647 5643 5638 5633 5628 5624 5621 5617 5612 5608 5605 5601 5598 5596 5593 5590 5588 5586 5583 5581 5579 5576 5574 5571 5569 5566 5564 5562 5561 5561 5560 5559 5559
5676 5672 5668 5663 5658 5653 5649 5644 5639 5634 5629 5625 5621 5616 5611 5607 5604 5601 5598 5594 5591 5588 5585 5583 5581 5579 5577 5575 5572 5570 5568 5566 5564 5562 5559 5557 5555 5554 5553 5552 5552 5551 5551
5661 5656 5651 5646 5641 5636 5631 5626 5621 5616 5611 5607 5603 5599 5595 5591 5588 5585 5582 5580 5577 5574 5572 5570 5569 5567 5565 5564 5562 5560 5558 5556 5555 5553 5551 5549 5547 5546 5545 5545 5544 5544 5544
5644 5639 5634 5629 5624 5619 5614 5609 5603 5599 5594 5590 5586 5582 5579 5576 5573 5570 5568 5566 5564 5562 5560 5559 5558 5557 5555 5554 5552 5551 5549 5547 5546 5544 5543 5541 5540 5539 5538 5537 5537 5537 5537
5626 5621 5616 5611 5606 5601 5596 5592 5587 5582 5578 5574 5570 5567 5564 5561 5559 5557 5555 5554 5552 5551 5550 5549 5548 5546 5545 5544 5543 5542 5540 5539 5538 5536 5535 5534 5533 5531 5531 5531 5530 5530 5531
5609 5604 5599 5594 5589 5584 5580 5576 5571 5567 5563 5559 5556 5553 5550 5548 5547 5545 5544 5543 5542 5541 5540 5539 5538 5537 5536 5535 5534 5534 5533 5531 5530 5529 5528 5527 5526 5525 5525 5524 5524 5525 5525